Date String (YYYY-MM-DD hh:mm:ss) UTC,Instrument flags,Ambient pressure (hPa),Sample flow (lpm),Bypass flow (lpm),Sample temperature (°C),Ambient temperature (°C),ASC tube jacket temperature (°C),LED temperature (°C),Box temperature (°C),Sample RH (%),Span deviation,Mass concentration (μg/m³),Mass concentration (μg/m³),Mass concentration (μg/m³)
DateTimeUTC,F1_M11,P_M11,Q1_M11,Q2_M11,T1_M11,T2_M11,T3_M11,T4_M11,T5_M11,U1_M11,ZSPAN_M11,X0_M11,X2_M11,X1_M11
2021-12-23 09:00:00,,0820.0,5.01,0.00,26.0,24.9,00.0,35.1,27.5,06.4,0000.0,0000.39,0000.33,0000.31
2021-12-23 09:01:00,,0819.9,5.01,0.00,25.9,24.9,00.0,35.1,27.5,06.5,0000.0,0000.43,0000.33,0000.31
2021-12-23 09:02:00,,0820.0,4.99,0.00,25.9,24.9,00.0,35.1,27.5,06.5,0000.0,0000.53,0000.34,0000.31
2021-12-23 09:03:00,,0819.9,4.98,0.00,25.9,24.9,00.0,35.0,27.5,06.6,0000.0,0000.54,0000.35,0000.31
2021-12-23 09:04:00,,0820.0,5.00,0.00,25.8,24.9,00.0,35.0,27.5,06.6,0000.0,0000.54,0000.34,0000.31
2021-12-23 09:05:00,,0820.0,5.00,0.00,25.8,24.9,00.0,35.0,27.5,06.6,0000.0,0000.58,0000.36,0000.31
2021-12-23 09:06:00,,0820.1,5.00,0.00,25.8,24.9,00.0,35.0,27.5,06.6,0000.0,0000.58,0000.36,0000.31
2021-12-23 09:07:00,,0820.0,5.00,0.00,25.8,24.9,00.0,35.0,27.5,06.7,0000.0,0000.57,0000.36,0000.31
2021-12-23 09:08:00,,0820.0,4.99,0.00,25.8,24.9,00.0,35.0,27.5,06.6,0000.0,0000.61,0000.37,0000.30
2021-12-23 09:09:00,,0820.0,5.01,0.00,25.8,24.8,00.0,34.9,27.5,06.6,0000.0,0000.67,0000.38,0000.30
2021-12-23 09:10:00,,0819.9,5.01,0.00,25.8,24.8,00.0,34.9,27.4,06.7,0000.0,0000.74,0000.37,0000.29
2021-12-23 09:11:00,,0819.9,4.99,0.00,25.7,24.8,00.0,34.9,27.4,06.7,0000.0,0000.76,0000.37,0000.29
2021-12-23 09:12:00,,0820.0,5.01,0.00,25.7,24.8,00.0,34.9,27.3,06.7,0000.0,0000.79,0000.39,0000.29
2021-12-23 09:13:00,,0819.9,5.00,0.00,25.7,24.8,00.0,34.9,27.3,06.7,0000.0,0000.84,0000.39,0000.29
2021-12-23 09:14:00,,0819.9,4.99,0.00,25.7,24.7,00.0,34.8,27.3,06.8,0000.0,0001.19,0000.39,0000.28
2021-12-23 09:15:00,,0820.0,5.01,0.00,25.6,24.6,00.0,34.8,27.3,06.8,0000.0,0001.23,0000.40,0000.28
2021-12-23 09:16:00,,0819.9,4.99,0.00,25.6,24.6,00.0,34.8,27.2,06.8,0000.0,0001.23,0000.40,0000.28
2021-12-23 09:17:00,,0819.9,5.02,0.00,25.6,24.6,00.0,34.8,27.2,06.9,0000.0,0001.28,0000.41,0000.28
2021-12-23 09:18:00,,0819.9,4.99,0.00,25.6,24.6,00.0,34.7,27.2,06.9,0000.0,0001.31,0000.41,0000.27
2021-12-23 09:19:00,,0819.8,5.00,0.00,25.5,24.6,00.0,34.7,27.2,06.9,0000.0,0001.29,0000.40,0000.27
2021-12-23 09:20:00,,0819.8,4.99,0.00,25.5,24.6,00.0,34.7,27.2,07.0,0000.0,0001.23,0000.38,0000.27
2021-12-23 09:21:00,,0819.8,5.01,0.00,25.5,24.6,00.0,34.7,27.2,07.0,0000.0,0001.11,0000.38,0000.27
2021-12-23 09:22:00,,0819.9,4.99,0.00,25.5,24.6,00.0,34.6,27.1,07.0,0000.0,0001.15,0000.37,0000.27
2021-12-23 09:23:00,,0819.9,5.01,0.00,25.5,24.6,00.0,34.6,27.1,07.0,0000.0,0001.15,0000.36,0000.28
2021-12-23 09:24:00,,0819.9,4.99,0.00,25.4,24.5,00.0,34.6,27.1,07.0,0000.0,0001.01,0000.37,0000.28
2021-12-23 09:25:00,,0819.9,5.01,0.00,25.4,24.5,00.0,34.6,27.1,07.0,0000.0,0000.69,0000.36,0000.28
2021-12-23 09:26:00,,0819.8,4.99,0.00,25.4,24.5,00.0,34.6,27.0,06.9,0000.0,0000.69,0000.37,0000.29
2021-12-23 09:27:00,,0819.9,5.00,0.00,25.4,24.5,00.0,34.6,27.0,06.8,0000.0,0000.72,0000.39,0000.31
2021-12-23 09:28:00,,0819.9,5.01,0.00,25.3,24.4,00.0,34.5,27.0,06.8,0000.0,0000.76,0000.42,0000.33
2021-12-23 09:29:00,,0819.9,4.99,0.00,25.3,24.4,00.0,34.5,27.0,07.0,0000.0,0000.79,0000.45,0000.34
2021-12-23 09:30:00,,0819.9,5.00,0.00,25.3,24.4,00.0,34.5,26.9,07.0,0000.0,0000.91,0000.48,0000.36
2021-12-23 09:31:00,,0819.9,5.01,0.00,25.3,24.4,00.0,34.5,26.9,07.0,0000.0,0000.99,0000.51,0000.37
2021-12-23 09:32:00,,0820.0,5.01,0.00,25.3,24.4,00.0,34.4,26.9,07.1,0000.0,0001.07,0000.53,0000.37
2021-12-23 09:33:00,,0820.0,5.00,0.00,25.2,24.4,00.0,34.4,26.9,07.2,0000.0,0001.02,0000.55,0000.37
2021-12-23 09:34:00,,0819.9,5.00,0.00,25.2,24.4,00.0,34.4,26.8,07.1,0000.0,0000.98,0000.54,0000.37
2021-12-23 09:35:00,,0819.8,4.99,0.00,25.2,24.3,00.0,34.4,26.8,07.2,0000.0,0000.95,0000.53,0000.37
2021-12-23 09:36:00,,0819.8,5.01,0.00,25.2,24.3,00.0,34.4,26.8,07.3,0000.0,0000.95,0000.53,0000.36
2021-12-23 09:37:00,,0819.7,4.99,0.00,25.2,24.3,00.0,34.4,26.8,07.2,0000.0,0001.02,0000.56,0000.36
2021-12-23 09:38:00,,0819.7,5.02,0.00,25.2,24.3,00.0,34.3,26.8,07.1,0000.0,0000.99,0000.54,0000.35
2021-12-23 09:39:00,,0819.9,4.99,0.00,25.1,24.3,00.0,34.3,26.8,07.1,0000.0,0001.01,0000.54,0000.34
2021-12-23 09:40:00,,0819.9,5.01,0.00,25.1,24.2,00.0,34.3,26.8,07.0,0000.0,0001.09,0000.54,0000.33
2021-12-23 09:41:00,,0820.0,5.00,0.00,25.1,24.2,00.0,34.3,26.7,07.0,0000.0,0001.48,0000.54,0000.33
2021-12-23 09:42:00,,0819.7,4.99,0.00,25.0,24.1,00.0,34.3,26.6,07.0,0000.0,0002.37,0000.55,0000.33
2021-12-23 09:43:00,,0819.7,5.00,0.00,25.0,24.1,00.0,34.2,26.7,07.1,0000.0,0002.32,0000.54,0000.33
2021-12-23 09:44:00,,0819.6,5.00,0.00,25.0,24.1,00.0,34.2,26.6,06.9,0000.0,0002.42,0000.55,0000.35
2021-12-23 09:45:00,,0819.6,5.01,0.00,25.0,24.1,00.0,34.2,26.7,06.9,0000.0,0002.46,0000.57,0000.37
2021-12-23 09:46:00,,0819.6,5.01,0.00,25.0,24.1,00.0,34.2,26.7,06.9,0000.0,0002.57,0000.62,0000.39
2021-12-23 09:47:00,,0819.6,4.99,0.00,25.0,24.2,00.0,34.2,26.8,07.1,0000.0,0002.71,0000.67,0000.39
2021-12-23 09:48:00,,0819.8,5.00,0.00,25.1,24.3,00.0,34.2,26.8,07.3,0000.0,0002.65,0000.65,0000.39
2021-12-23 09:49:00,,0819.8,5.01,0.00,25.1,24.3,00.0,34.2,26.8,07.1,0000.0,0002.60,0000.63,0000.40
2021-12-23 09:50:00,,0819.7,4.98,0.00,25.1,24.4,00.0,34.2,26.9,07.0,0000.0,0002.70,0000.62,0000.41
2021-12-23 09:51:00,,0819.6,5.02,0.00,25.1,24.4,00.0,34.2,26.9,07.0,0000.0,0003.20,0000.63,0000.41
2021-12-23 09:52:00,,0819.6,5.00,0.00,25.2,24.5,00.0,34.2,26.9,07.0,0000.0,0003.25,0000.61,0000.41
2021-12-23 09:53:00,,0819.5,4.99,0.00,25.2,24.5,00.0,34.2,26.9,07.1,0000.0,0002.07,0000.59,0000.41
2021-12-23 09:54:00,,0819.6,5.01,0.00,25.2,24.4,00.0,34.2,26.9,07.1,0000.0,0002.11,0000.61,0000.41
2021-12-23 09:55:00,,0819.5,5.00,0.00,25.1,24.4,00.0,34.2,26.9,07.2,0000.0,0002.04,0000.62,0000.41
2021-12-23 09:56:00,,0819.4,5.00,0.00,25.1,24.4,00.0,34.2,26.9,07.1,0000.0,0002.05,0000.63,0000.40
2021-12-23 09:57:00,,0819.6,5.01,0.00,25.1,24.4,00.0,34.2,26.9,07.1,0000.0,0002.01,0000.60,0000.38
2021-12-23 09:58:00,,0819.7,4.98,0.00,25.2,24.4,00.0,34.2,26.9,07.1,0000.0,0001.93,0000.60,0000.38
2021-12-23 09:59:00,,0819.8,5.01,0.00,25.2,24.4,00.0,34.2,26.9,07.1,0000.0,0001.94,0000.60,0000.38
